Weather Roundup
Issued by NWS Chicago, IL

Home | Current Version | Previous Version | Text Only | Print | Product List | Glossary On
Versions: 1 2 3 4 5 6 7 8 9 10 11 12 13 14 15 16 17 18 19 20 21 22 23 24 25 26 27 28 29 30 31 32 33 34 35 36 37 38 39 40 41 42 43 44 45 46 47 48 49 50
000
NZUS59 KLOT 231108
HRRLOT

CHICAGO AREA WEATHER ROUNDUP
NATIONAL WEATHER SERVICE CHICAGO/ROMEOVILLE IL
500 AM CST FRI FEB 23 2018

NOTE: "FAIR" INDICATES FEW OR NO CLOUDS BELOW 12,000 FEET WITH NO
SIGNIFICANT WEATHER AND/OR OBSTRUCTIONS TO VISIBILITY.

* THESE STATIONS ARE NOT UNDER NWS QUALITY CONTROL. THEY ALSO MAY NOT
  REPORT WEATHER SUCH AS PRECIPITATION OR FOG.

ILZ005-006-012>014-019>023-231200-
NORTHEAST ILLINOIS

CITY           SKY/WX    TMP DP  RH WIND       PRES   REMARKS
OHARE          LGT RAIN  39  37  92 S8        30.10F FOG
MIDWAY         LGT RAIN  40  40 100 S6        30.12F FOG
AURORA         LGT RAIN  39  38  96 SE13      30.09F FOG
LANSING*       LGT RAIN  38  38 100 SE5       30.12F
JOLIET*        RAIN      40  40 100 SE6       30.11S
WAUKEGAN       LGT RAIN  35  35 100 S12       30.09F VSB 3/4 WCI  27
DUPAGE AIRPORT LGT RAIN  39  39 100 S10       30.09S FOG
WHEELING       CLOUDY    40  39  97 S8        30.11S FOG
KANKAKEE*      RAIN      39  39  98 SE5       30.14R VSB 1/2
MORRIS*        DRIZZLE   40  40  99 SE12      30.09F
LEWIS AIRPORT* LGT RAIN  38  38 100 S9        30.11S
NORTHERLY ISL    N/A     37  36  96 SE6         N/A
$$

WIZ051-052-058>065-066-070>072-231200-
SOUTHEAST WISCONSIN

CITY           SKY/WX    TMP DP  RH WIND       PRES   REMARKS
MILWAUKEE      LGT RAIN  36  36 100 SE13      30.09F VSB 3/4
KENOSHA*       LGT RAIN  36  35  96 SE8       30.09F FOG
RACINE*        LGT RAIN  35  35 100 S14       30.10F FOG     WCI  26
BURLINGTON     MIX PCPN  35  34  96 SE5       30.08F WCI  31
WAUKESHA       RAIN      32  32 100 SE10      30.08F WCI  24
WEST BEND      DRZL/FOG  34  34 100 S8        30.06S VSB 1   WCI  27
$$

INZ001>003-010>013-019-020-231200-
NORTHWEST INDIANA

CITY           SKY/WX    TMP DP  RH WIND       PRES   REMARKS
GARY*          RAIN      39  39 100 SE9       30.13F
MICHIGAN CITY* NOT AVBL
RENSSELAER*    NOT AVBL
VALPARAISO     CLOUDY    39  38  96 E8        30.13F FOG
$$

LMZ740>746-231200-
SOUTHERN LAKE MICHIGAN

STATION/POSITION TIME  SKY/WX   TEMP WIND        PRES    VSBY
                                AIR  DIR/SP/G
                 (UTC)          (F)  (DEG/KT/KT) (MB)    (MI)
HARRISON CRIB    1040            37  160/ 13/ 14   N/A
BURNHAM HARBOR   1100            37  170/  5/  8   N/A
CALUMET HARBOR   1048            38  150/ 12/ 16 1019.0F
BURNS HARBOR     1040            39  150/ 10/ 16 1021.0F
MICHIGAN CITY    1040            38  130/ 16/ 19   N/A
$$

ABBREVIATIONS USED IN REMARKS
   TC - TEMPERATURE IN CELSIUS
  WCI - WIND CHILL INDEX
   HX - HEAT INDEX
  VSB - VISIBILITY
$$




USA.gov is the U.S. government's official web portal to all federal, state and local government web resources and services.